FW0523 Weather Reports


Display with metric or nautical units.
time (UTC)temp
F
wind
direction
speed
MPH
gust
MPH
rain 1hr
in
rain 24hr
in
rain mn
in
humidity
%
barometer
mb
20260504080603 46 360 0.0 7.0 0.00 0.00 3.73 74 1020.0
20260504050503 50 253 2.0 13.0 0.00 0.00 0.05 40 1018.8
20260504044403 49 335 1.0 5.0 0.00 0.00 0.05 41 1018.8
20260504041203 49 224 2.0 10.0 0.00 0.00 0.05 41 1019.1
20260504034003 50 210 0.0 8.0 0.00 0.00 0.05 41 1019.1
20260504033003 50 360 0.0 4.0 0.00 0.00 0.05 41 1018.9
20260504032006 51 360 2.0 3.0 0.00 0.00 0.05 40 1018.9
20260504031003 51 182 1.0 3.0 0.00 0.00 0.05 40 1019.1
20260504030003 52 195 2.0 3.0 0.00 0.00 0.05 40 1018.8
20260504025004 53 174 1.0 8.0 0.00 0.00 0.05 39 1018.8
20260504024002 53 360 1.0 3.0 0.00 0.00 0.05 38 1018.8
20260504021903 55 360 4.0 9.0 0.00 0.00 0.05 36 1018.4
20260504020903 56 360 0.0 5.0 0.00 0.00 0.05 36 1018.4
20260504015904 56 360 0.0 8.0 0.00 0.00 0.05 35 1018.4
20260504014902 57 274 0.0 9.0 0.00 0.00 0.05 34 1018.4
20260504012803 58 257 0.0 7.0 0.00 0.00 0.05 30 1018.3
20260504011803 59 246 2.0 9.0 0.00 0.00 0.05 28 1018.4
20260504010804 59 188 5.0 9.0 0.00 0.00 0.05 27 1018.4
20260504005802 59 178 3.0 13.0 0.00 0.00 0.05 27 1018.7
20260504004803 60 220 8.0 14.0 0.00 0.00 0.05 27 1018.7
20260504003804 60 38 1.0 1.0 0.00 0.00 0.05 27 1018.6
20260504002802 60 344 0.0 3.0 0.00 0.00 0.05 26 1018.7
20260504001803 60 344 0.0 0.0 0.00 0.00 0.05 27 1018.8
20260504000803 61 330 0.0 3.0 0.00 0.00 0.05 27 1018.8
20260503235802 61 360 1.0 9.0 0.00 0.00 0.05 26 1018.8
20260503234803 61 360 3.0 10.0 0.00 0.00 0.05 27 1019.1
20260503233803 61 360 2.0 9.0 0.00 0.00 0.05 27 1019.2
20260503232804 61 224 0.0 4.0 0.00 0.00 0.05 27 1019.2
20260503231802 61 72 1.0 12.0 0.00 0.00 0.05 28 1019.3
20260503230803 61 136 4.0 12.0 0.00 0.00 0.05 27 1019.7
20260503225804 62 360 6.0 16.0 0.00 0.00 0.05 24 1019.9
20260503224802 64 86 3.0 9.0 0.00 0.00 0.05 21 1019.3
20260503223803 64 175 2.0 16.0 0.00 0.00 0.05 20 1019.5
20260503222803 63 191 1.0 4.0 0.00 0.00 0.05 22 1019.3
20260503221802 62 100 3.0 10.0 0.00 0.00 0.05 21 1019.5
20260503220803 62 66 1.0 3.0 0.00 0.00 0.05 22 1019.7
20260503215804 61 325 0.0 0.0 0.00 0.00 0.05 23 1020.0
20260503214802 60 325 0.0 6.0 0.00 0.00 0.05 24 1020.3
20260503213804 59 38 6.0 13.0 0.00 0.00 0.05 27 1020.5
20260503211703 60 17 4.0 9.0 0.00 0.00 0.05 24 1020.8
20260503205603 60 319 3.0 11.0 0.00 0.00 0.05 25 1021.2
20260503204604 60 349 6.0 21.0 0.00 0.00 0.05 24 1021.3
20260503203605 62 10 6.0 11.0 0.00 0.00 0.05 20 1020.9
20260503202603 62 337 7.0 10.0 0.00 0.00 0.05 19 1020.9
20260503201604 61 8 5.0 17.0 0.00 0.00 0.05 22 1021.1
20260503200605 60 320 9.0 15.0 0.00 0.00 0.05 21 1021.3
20260503194503 62 1 6.0 15.0 0.00 0.00 0.05 20 1021.3
20260503193503 62 10 9.0 11.0 0.00 0.00 0.05 19 1021.5
20260503192504 62 17 2.0 8.0 0.00 0.00 0.05 19 1021.5
20260503191502 61 1 8.0 11.0 0.00 0.00 0.05 20 1021.7
20260503190505 61 0 4.0 11.0 0.00 0.00 0.05 20 1021.9
20260503185504 63 340 4.0 9.0 0.00 0.00 0.05 17 1021.7
20260503184502 61 37 0.0 6.0 0.00 0.00 0.05 18 1022.0
20260503183503 60 0 8.0 11.0 0.00 0.00 0.05 18 1022.4
20260503182504 60 21 3.0 10.0 0.00 0.00 0.05 19 1022.5
20260503181503 61 83 1.0 6.0 0.00 0.00 0.05 18 1022.3
20260503180502 60 55 4.0 15.0 0.00 0.00 0.05 19 1022.4
20260503175503 60 28 5.0 5.0 0.00 0.00 0.05 17 1022.7
20260503174504 61 40 2.0 6.0 0.00 0.00 0.05 18 1022.9
20260503173502 61 332 2.0 6.0 0.00 0.00 0.05 18 1022.9
20260503172503 60 16 2.0 8.0 0.00 0.00 0.05 18 1022.9
20260503171504 60 23 7.0 7.0 0.00 0.00 0.05 18 1023.1
20260503170502 61 13 1.0 11.0 0.00 0.00 0.05 17 1023.2
20260503150402 56 18 0.0 3.0 0.00 0.00 0.04 27 1023.9
20260503131304 43 220 2.0 9.0 0.00 0.00 0.01 44 1024.5
20260503130302 43 215 3.0 8.0 0.00 0.00 0.01 44 1024.7
20260503120203 41 360 1.0 3.0 0.00 0.00 0.00 47 1024.4
20260503110103 43 107 3.0 10.0 0.00 0.00 0.00 46 1024.3